SCP
3 3 4 3 3 3 3 2 2 2 2 2 2 1 1 1 1 1 1 1 2 2 2 3 5 6 5 4 3 3 3 2 2 2 2 2 2 2 2 1 1 1 1
3 3 3 3 2 2 2 2 2 1 2 2 2 1 1 1 1 1 1 1 2 2 2 3 5 6 6 4 3 3 2 2 2 2 2 2 2 2 2 2 1 1 1
2 3 3 2 1 2 2 2 1 1 1 1 1 1 1 1 1 1 1 1 1 1 2 2 4 5 5 3 3 3 2 2 2 2 2 2 2 2 2 2 2 1 1
2 3 2 1 1 1 1 1 1 1 1 1 1 1 1 1 1 1 1 1 1 1 2 2 3 4 4 3 2 2 2 2 2 2 2 2 2 2 2 2 2 1 1
2 2 1 1 1 1 1 1 1 1 1 1 1 1 1 1 1 1 1 1 1 1 1 1 2 3 3 2 2 2 2 2 2 2 2 2 2 2 2 2 2 2 1
1 1 1 1 1 1 1 1 1 1 1 1 1 1 1 1 1 1 1 1 1 1 1 1 1 2 2 2 2 2 2 2 2 2 2 2 2 2 2 2 2 2 1
1 1 1 1 1 1 1 1 1 1 1 1 1 1 1 1 1 1 1 1 1 1 1 1 1 1 1 1 1 2 2 2 2 2 2 2 2 2 2 2 2 2 2
1 1 1 1 1 1 1 1 1 1 1 1 1 1 1 1 1 1 1 1 1 1 1 1 1 1 1 1 1 1 2 2 2 2 2 2 2 2 2 2 2 2 2
1 1 1 1 1 1 1 1 1 1 1 0 0 1 1 1 1 1 1 1 1 1 1 1 1 1 1 1 1 1 1 2 2 3 3 2 2 2 2 2 2 2 2
1 1 1 1 1 1 1 1 1 1 1 0 0 0 0 0 0 0 1 1 1 1 1 1 1 1 1 0 0 1 1 1 2 3 3 3 2 2 2 2 2 2 2
1 1 1 1 1 1 0 0 1 1 1 0 0 0 0 0 0 0 0 1 1 1 1 1 1 1 1 0 0 0 0 1 1 2 3 3 2 2 2 2 2 2 2
1 1 1 1 0 0 1 0 0 0 0 0 0 0 0 0 0 0 0 0 0 1 1 1 1 1 1 1 0 0 0 0 1 1 2 3 3 2 2 2 2 2 2
1 1 1 0 0 0 0 0 0 0 0 0 0 0 0 0 0 0 0 0 0 0 1 1 1 1 1 1 0 0 0 0 0 1 1 2 2 2 2 2 2 2 2
1 0 0 0 0 0 0 0 0 0 0 0 0 0 0 0 0 0 0 0 0 0 0 0 1 0 0 0 0 0 0 0 0 0 1 1 2 2 2 2 2 2 2
0 0 0 0 0 1 1 1 0 0 0 0 0 0 0 0 0 0 0 0 0 0 0 0 0 0 0 0 0 0 0 0 0 0 0 0 1 1 2 2 1 1 1
0 0 0 0 1 1 1 1 0 0 0 0 0 0 0 0 0 0 0 0 0 0 0 0 0 0 0 0 0 0 0 0 0 0 0 0 0 1 1 1 1 1 1
0 0 0 0 0 0 0 0 0 0 0 0 0 0 0 0 0 0 0 0 0 0 0 0 0 0 0 0 0 0 0 0 0 0 0 0 0 0 1 1 1 1 1
0 0 0 0 0 0 0 0 0 0 0 0 0 0 0 0 0 0 0 0 1 1 0 0 0 0 0 0 0 0 0 0 0 0 0 0 0 0 0 0 0 0 0
0 0 0 0 0 0 0 0 0 0 0 0 0 0 0 0 0 0 0 0 1 1 0 0 0 0 0 0 0 0 0 0 0 0 0 0 0 0 0 0 0 0 0
0 0 0 0 0 0 0 0 0 0 0 0 0 0 0 0 0 0 0 0 0 0 0 0 0 0 0 0 0 0 0 0 0 0 0 0 0 0 0 0 0 0 0
0 0 1 1 0 0 0 0 0 0 0 0 0 0 0 0 0 0 0 0 0 0 0 0 0 0 0 1 0 0 0 0 0 0 0 0 0 0 0 0 0 0 0
0 0 0 0 0 0 0 0 0 0 0 0 0 0 0 0 0 0 0 0 0 0 0 0 0 0 1 1 0 0 0 0 0 0 0 0 0 0 0 0 0 0 0
0 0 0 0 0 0 0 0 0 0 0 0 0 0 0 0 0 0 0 0 0 0 0 0 0 0 1 1 0 0 0 0 0 0 0 0 0 0 0 0 0 0 0
1 1 0 0 0 0 0 0 0 0 0 0 0 0 0 0 0 0 0 0 0 0 0 0 0 0 0 0 0 0 0 0 0 0 0 0 0 0 0 0 0 0 0
1 1 1 0 0 0 0 0 0 0 0 0 0 0 0 0 0 0 0 0 0 0 0 0 0 0 0 0 0 0 0 0 0 0 0 0 0 0 0 0 0 0 0
1 1 1 0 0 0 0 0 0 0 0 0 0 0 0 0 0 0 0 0 0 0 0 0 0 0 0 0 0 0 0 0 0 0 0 0 0 0 0 0 0 0 0
Wind_Speed
2 2 2 2 2 2 2 2 2 3 3 3 4 4 5 5 5 5 4 10 12 12 13 13 13 13 13 13 13 13 13 13 13 12 12 12 12 13 13 14 14 14 15
2 2 2 2 2 2 2 2 3 3 3 3 4 4 5 5 5 5 4 7 11 12 12 13 13 13 13 14 14 14 14 13 13 13 13 12 12 13 13 13 14 15 15
2 2 2 2 2 2 2 2 2 2 2 3 4 4 4 5 4 5 5 4 5 10 13 13 13 14 15 15 15 15 15 14 14 14 14 13 13 13 14 14 14 14 14
2 2 2 2 2 1 1 2 2 2 3 3 3 3 3 3 4 4 4 4 4 5 8 12 12 13 14 15 15 15 15 14 14 14 14 14 14 13 13 14 14 14 14
2 2 1 2 2 1 1 2 2 2 2 3 3 3 3 3 3 4 4 4 4 4 4 7 11 11 12 14 15 15 15 15 15 14 14 14 14 14 14 14 15 15 15
2 2 1 2 1 1 1 2 2 2 2 3 3 3 3 3 2 3 3 3 4 5 4 4 5 6 10 11 12 13 15 15 15 15 15 15 14 13 13 14 14 14 15
1 1 1 1 1 1 2 2 1 2 2 1 0 2 3 3 2 2 2 2 3 3 4 4 3 3 4 9 11 12 13 14 15 15 15 15 14 13 13 14 14 14 15
1 1 2 2 2 2 2 2 1 1 1 1 2 0 2 3 3 2 1 2 3 2 3 4 4 4 3 3 6 11 12 13 14 15 14 14 14 14 14 15 15 14 14
2 2 3 2 3 3 3 3 2 3 2 2 2 3 2 3 2 2 2 2 2 2 2 2 3 3 4 3 4 7 10 10 12 13 14 13 14 14 15 15 16 15 15
3 3 2 3 3 3 3 3 3 2 3 2 2 2 3 3 2 2 2 2 2 2 2 2 2 2 3 3 4 6 8 9 9 10 11 11 12 14 14 15 15 15 15
3 3 3 2 3 3 3 3 2 2 2 3 2 2 1 1 2 2 2 3 2 2 2 2 2 2 2 2 3 5 7 7 7 8 9 11 11 12 13 14 15 15 15
2 3 2 2 3 3 3 3 3 3 3 3 3 2 2 2 2 2 2 2 2 3 2 1 1 1 2 2 4 5 6 7 7 7 7 8 9 10 12 13 14 15 15
2 3 2 3 3 3 3 3 3 4 4 4 4 3 2 3 2 2 2 2 2 2 2 1 2 1 2 2 3 6 6 7 7 7 7 8 8 10 11 13 14 15 15
3 4 3 3 3 4 3 3 3 4 3 3 4 3 2 2 2 3 3 3 1 2 2 3 2 2 2 3 5 6 5 7 8 8 8 8 9 10 11 12 13 13 14
3 3 3 3 3 3 3 3 2 3 3 3 3 3 2 2 2 2 3 3 3 2 3 3 2 3 3 3 5 4 4 7 8 8 8 9 9 10 10 11 11 12 13
3 3 3 3 3 3 3 2 2 2 2 2 2 2 2 2 2 2 2 2 3 3 3 3 3 3 3 3 4 3 4 7 9 9 9 9 9 10 10 11 11 11 11
4 4 4 4 4 3 2 2 2 2 2 2 2 2 2 2 2 2 2 2 2 2 3 3 2 2 2 3 3 3 4 4 5 9 10 10 10 10 10 10 11 11 11
4 4 3 3 3 3 2 2 2 2 2 3 2 2 2 2 2 2 2 2 2 3 3 4 3 2 3 4 3 4 4 4 4 8 10 10 9 9 9 10 10 10 10
3 3 3 3 3 3 2 2 3 3 3 3 3 3 3 2 2 2 2 2 2 2 2 3 3 2 3 2 2 3 4 3 4 5 7 8 8 9 9 9 9 10 10
2 2 2 2 3 3 2 2 2 2 2 3 3 3 3 3 4 3 3 3 3 2 2 2 2 2 3 3 1 2 3 2 3 3 4 4 5 7 7 8 8 9 9
1 1 2 2 2 2 2 2 2 2 2 2 2 2 3 4 4 4 3 3 2 2 2 2 2 2 2 2 2 2 2 2 3 2 2 3 2 2 3 5 6 7 7
1 1 1 2 2 2 3 3 3 2 2 3 3 3 3 3 3 4 5 4 4 4 3 3 3 3 4 3 2 2 2 1 3 2 1 2 2 2 3 3 5 6 6
1 1 2 2 2 3 4 4 4 3 3 3 3 3 3 2 2 2 3 3 3 4 5 5 4 5 4 4 3 2 3 2 3 3 1 2 2 2 3 3 5 5 5
2 2 2 3 2 3 4 4 4 3 3 3 4 4 3 2 2 2 2 1 2 3 4 4 5 5 5 4 4 3 3 2 3 3 2 2 2 2 2 2 4 4 3
3 2 2 2 2 3 3 3 2 1 1 2 3 2 3 3 3 3 2 1 2 3 4 4 5 5 6 6 4 1 1 1 2 3 1 1 1 1 2 2 2 3 3
2 2 2 1 1 2 2 2 2 1 1 1 1 1 3 3 2 2 2 2 2 3 3 3 3 3 3 3 3 3 3 2 1 2 2 1 1 0 1 2 1 1 1
Wind_Direction
207 217 219 210 211 211 215 222 224 227 235 244 243 236 234 232 226 219 229 227 222 221 222 221 217 220 222 222 222 221 220 219 217 215 215 216 216 213 212 211 211 212 214
202 205 216 209 214 210 211 208 220 223 230 239 252 251 245 239 233 223 222 227 227 222 221 221 221 224 226 227 226 225 225 223 222 219 218 218 218 215 214 213 213 213 214
213 200 197 200 214 218 215 206 223 231 241 246 254 257 251 243 237 225 219 215 221 225 226 225 225 225 227 228 229 228 227 225 225 224 222 222 221 219 217 217 217 216 214
216 188 196 214 210 202 213 212 209 229 242 245 251 255 252 247 242 227 221 217 215 225 228 228 227 227 228 231 231 230 229 227 227 227 226 224 222 221 221 220 219 218 216
203 187 189 221 204 184 218 233 213 210 230 247 251 252 254 246 242 235 225 217 212 214 217 231 233 234 234 236 236 234 232 230 230 229 228 227 225 224 224 223 223 221 219
194 184 209 223 198 166 221 241 233 226 222 233 254 266 266 258 244 228 222 218 218 221 218 224 229 236 237 238 240 240 239 235 233 231 229 229 228 227 226 226 226 224 221
201 180 223 221 200 191 214 225 227 236 241 216 306 307 301 281 262 240 231 219 225 227 221 217 218 221 233 240 241 243 245 242 237 234 232 230 227 225 226 227 227 227 224
216 198 209 214 208 206 223 231 207 218 244 171 147 108 322 325 314 283 263 236 246 247 239 226 217 215 222 229 242 244 245 246 244 238 234 232 229 226 226 228 228 229 227
225 221 215 212 214 198 213 227 215 200 225 243 172 158 167 237 290 305 277 259 252 249 252 249 232 228 228 225 234 244 246 243 246 244 240 235 232 230 229 230 230 230 229
240 240 231 214 217 212 219 229 216 206 193 226 230 199 188 180 182 292 313 289 264 252 252 256 249 241 235 231 234 243 247 242 243 245 244 241 238 235 235 235 233 230 229
251 238 240 229 227 229 230 230 222 209 199 202 207 201 202 198 185 183 270 297 305 274 250 241 241 256 250 237 233 241 243 235 235 240 242 243 242 240 238 237 235 233 232
267 252 245 240 233 232 234 231 223 214 211 209 208 195 182 183 203 190 218 258 282 284 280 275 266 263 264 253 251 247 236 232 233 236 241 246 249 247 243 242 240 237 237
264 262 252 246 246 239 233 226 224 227 214 210 215 212 203 201 188 178 186 230 263 287 302 290 261 254 271 263 261 259 241 232 230 231 237 242 249 251 248 245 244 243 242
244 246 244 249 253 253 245 228 226 229 217 211 217 205 204 212 193 181 181 179 239 289 287 271 278 257 270 270 261 261 252 241 237 236 238 242 245 249 249 247 247 246 243
249 251 255 257 256 254 248 233 228 237 218 212 207 195 204 213 198 196 190 177 177 232 268 260 257 256 260 260 263 257 255 252 246 242 242 245 246 248 248 247 245 243 241
255 259 257 256 253 253 250 227 229 228 204 207 199 196 213 209 204 200 198 196 185 189 241 253 243 252 270 284 280 262 254 259 252 247 246 247 247 249 249 248 246 244 241
255 254 254 251 247 249 245 225 224 210 197 210 214 202 215 204 201 206 201 199 200 184 229 269 259 258 259 269 286 276 264 252 255 252 249 248 248 249 252 250 246 243 239
252 247 254 244 239 235 230 214 213 207 193 195 211 205 217 207 197 206 202 212 215 205 202 248 269 263 259 259 260 267 274 268 256 258 252 252 253 255 254 251 248 243 239
256 250 249 235 233 226 222 220 209 207 201 197 204 205 212 195 215 220 208 218 227 227 202 217 258 260 268 272 279 280 277 274 272 271 258 252 255 258 257 251 252 248 242
252 248 241 233 228 221 219 219 208 201 205 206 209 211 211 203 211 216 215 223 226 222 214 217 250 268 274 277 263 273 289 284 283 288 284 270 260 263 259 253 252 250 245
260 236 234 251 239 220 225 218 210 207 201 205 220 225 220 212 216 210 214 215 208 206 213 219 244 260 272 278 264 254 269 288 288 262 278 282 268 266 264 254 250 251 249
313 300 255 248 251 247 239 234 221 207 208 210 223 237 240 233 233 232 233 221 204 198 206 212 228 241 256 254 247 240 244 283 291 272 222 280 267 265 266 250 256 252 249
311 309 280 254 264 262 242 239 235 217 213 217 215 219 236 233 228 225 243 251 255 243 220 206 217 237 245 244 224 240 236 232 247 254 210 271 267 260 261 258 255 254 255
291 283 271 253 257 266 246 240 239 219 216 221 213 207 206 217 226 204 205 250 270 269 253 227 218 237 244 243 218 215 222 246 273 269 205 240 261 258 270 275 265 257 256
292 284 280 262 252 274 268 249 222 206 218 241 233 209 194 206 229 208 181 215 285 297 294 268 240 248 254 255 235 182 208 183 285 284 242 205 251 274 285 284 280 258 252
288 302 314 292 256 271 280 249 208 180 207 252 254 227 215 210 229 216 182 190 252 277 299 318 317 311 294 290 263 199 191 189 232 270 258 194 243 338 309 289 295 295 275